Regional Weather Roundup
Issued by NWS

Home | Current Version | Previous Version | Graphics & Text | Print | Product List | Glossary Off
Versions: 1 2 3 4 5 6 7 8 9 10 11 12 13 14 15 16 17 18 19 20 21 22 23 24 25 26 27 28 29 30 31 32 33 34 35 36 37 38 39 40 41 42 43 44 45 46 47 48 49 50

000
ASUS43 KTOP 250259
RWRKS

WEATHER ROUNDUP FOR KANSAS
NATIONAL WEATHER SERVICE GOODLAND KS
900 PM CST WED DEC 24 2014

NOTE:  "FAIR" INDICATES FEW OR NO CLOUDS BELOW 12,000 FEET WITH NO
SIGNIFICANT WEATHER AND/OR OBSTRUCTIONS TO VISIBILITY.

KSZ001>006-013>018-027>032-041>047-250400-
NORTHWEST KANSAS

CITY           SKY/WX    TMP DP  RH WIND       PRES   REMARKS
GOODLAND       CLOUDY    36  18  48 SW15      29.61F WCI  27
HAYS           CLEAR     30  16  55 S8        29.70F
HILL CITY      CLEAR     34  14  43 SW6       29.66F
RUSSELL        CLEAR     32  23  69 S12       29.70F WCI  23
$$

KSZ061>065-074>080-084>089-250400-
SOUTHWEST KANSAS

CITY           SKY/WX    TMP DP  RH WIND       PRES   REMARKS
DODGE CITY     CLEAR     31  17  56 S8        29.73F
ELKHART          N/A     37  15  40 SW14        N/A  WCI  28
GARDEN CITY    PTCLDY    29  17  61 S8        29.69F
GREAT BEND     CLEAR     30  21  69 S8        29.75F
LIBERAL        CLEAR     32  14  47 S10       29.75F WCI  24
$$

KSZ066>073-081>083-090>101-250400-
SOUTHEAST KANSAS

CITY           SKY/WX    TMP DP  RH WIND       PRES   REMARKS
CHANUTE        CLEAR     28  26  92 S7        29.88F
COFFEYVILLE    CLEAR     31  28  89 S6        29.91S
HUTCHINSON     CLEAR     31  22  69 S9        29.79F
NEWTON         CLEAR     32  21  64 S9        29.82F
PARSONS        CLEAR     31  28  89 S3        29.91S
WICHITA INTL   PTCLDY    30  22  72 S9        29.82F
WICHITA JABRA  CLEAR     30  23  75 S8        29.82F
WINFIELD       CLEAR     30  26  85 S8        29.87F
$$

KSZ007>012-019>026-033>040-048>060-102>105-250400-
NORTHEAST KANSAS

CITY           SKY/WX    TMP DP  RH WIND       PRES   REMARKS
CONCORDIA      CLEAR     34  24  67 S16       29.72F WCI  24
EMPORIA        CLEAR     28  26  92 S12       29.82F WCI  18
LAWRENCE       CLEAR     31  27  85 S6        29.84F
MANHATTAN      CLEAR     26  25  96 CALM      29.78F
OLATHE IND     PTCLDY    31  28  89 S6        29.84F
OLATHE EXE     CLOUDY    33  29  85 SW6       29.83F
SALINA         CLEAR     33  26  75 S8        29.76F
TOPEKA BILLARD CLEAR     32  28  85 S3        29.82F
TOPEKA FORBES  CLEAR     30  26  85 S7        29.81F
$$


USA.gov is the U.S. government's official web portal to all federal, state and local government web resources and services.